VJH632 EGPF-EDNY

Flight info

Callsign VJH632
Flight time 2h 2m
Altitude 39000
Route LUSIV DCT BELOX L603 BUKUT DCT LAMSO DCT REMBA M624 DIK M150 PITES DCT TITIX N850 TRA N491 ZUE ZUE1F
Aircraft E35L/M-SABDFGRW/S

Departure

Time 2026-04-29 14:09
Airport Glasgow Airport (EGPF)

Arrival

Time 2026-04-29 16:11
Airport Bodensee Airport Friedrichshafen (EDNY)
Time Latitude Longitude Altitude Speed Heading
2026-04-29 13:48 55.87058 -4.42585 27 ft 0 kts 198°
2026-04-29 14:01 55.87056 -4.42586 27 ft 1 kts 198°
2026-04-29 14:02 55.87035 -4.42599 27 ft 5 kts 207°
2026-04-29 14:02 55.87028 -4.42676 27 ft 8 kts 283°
2026-04-29 14:02 55.87036 -4.42735 27 ft 0 kts 285°
2026-04-29 14:03 55.87037 -4.42746 27 ft 2 kts 287°
2026-04-29 14:03 55.87043 -4.42801 27 ft 6 kts 260°
2026-04-29 14:03 55.86997 -4.42854 27 ft 10 kts 205°
2026-04-29 14:04 55.86921 -4.42919 27 ft 14 kts 205°
2026-04-29 14:04 55.86842 -4.43037 27 ft 16 kts 246°
2026-04-29 14:04 55.86807 -4.43261 27 ft 20 kts 257°
2026-04-29 14:04 55.86768 -4.43516 27 ft 20 kts 254°
2026-04-29 14:05 55.86734 -4.43720 27 ft 15 kts 252°
2026-04-29 14:05 55.86673 -4.43864 27 ft 13 kts 226°
2026-04-29 14:05 55.86611 -4.43982 27 ft 12 kts 225°
2026-04-29 14:05 55.86539 -4.44114 27 ft 16 kts 226°
2026-04-29 14:06 55.86454 -4.44272 27 ft 17 kts 228°
2026-04-29 14:06 55.86376 -4.44419 27 ft 15 kts 226°
2026-04-29 14:06 55.86302 -4.44561 27 ft 16 kts 230°
2026-04-29 14:06 55.86261 -4.44698 27 ft 13 kts 283°
2026-04-29 14:07 55.86326 -4.44840 27 ft 16 kts 317°
2026-04-29 14:07 55.86377 -4.44852 27 ft 6 kts 48°
2026-04-29 14:07 55.86381 -4.44844 27 ft 0 kts 48°
2026-04-29 14:08 55.86389 -4.44828 27 ft 6 kts 47°
2026-04-29 14:08 55.86611 -4.44413 27 ft 95 kts 46°
2026-04-29 14:08 55.86927 -4.43824 32 ft 140 kts 46°
2026-04-29 14:09 55.87501 -4.42741 370 ft 166 kts 47°
2026-04-29 14:09 55.88329 -4.41142 1192 ft 190 kts 49°
2026-04-29 14:09 55.89193 -4.39406 2303 ft 196 kts 53°
2026-04-29 14:09 55.90118 -4.37443 2964 ft 223 kts 52°
2026-04-29 14:10 55.91334 -4.35449 3679 ft 252 kts 46°
2026-04-29 14:10 55.92538 -4.33217 4811 ft 257 kts 51°
2026-04-29 14:10 55.93396 -4.30559 6095 ft 250 kts 78°
2026-04-29 14:10 55.93397 -4.27580 7259 ft 249 kts 106°
2026-04-29 14:11 55.92539 -4.24951 8352 ft 255 kts 135°
2026-04-29 14:11 55.90979 -4.23512 9419 ft 266 kts 166°
2026-04-29 14:11 55.89118 -4.23750 10449 ft 282 kts 193°
2026-04-29 14:11 55.87226 -4.24651 11473 ft 283 kts 185°
2026-04-29 14:12 55.85264 -4.25259 12148 ft 301 kts 184°
2026-04-29 14:12 55.83136 -4.25879 12893 ft 315 kts 184°
2026-04-29 14:12 55.80989 -4.26496 13905 ft 318 kts 183°
2026-04-29 14:12 55.78838 -4.27109 14871 ft 321 kts 183°
2026-04-29 14:13 55.76639 -4.27736 15832 ft 326 kts 183°
2026-04-29 14:13 55.74398 -4.28373 16792 ft 330 kts 183°
2026-04-29 14:13 55.72124 -4.28767 17614 ft 327 kts 170°
2026-04-29 14:13 55.70013 -4.27703 18470 ft 319 kts 148°
2026-04-29 14:14 55.68062 -4.25784 19312 ft 324 kts 147°
2026-04-29 14:14 55.65990 -4.24125 20098 ft 334 kts 157°
2026-04-29 14:14 55.63702 -4.23107 20868 ft 342 kts 162°
2026-04-29 14:14 55.61366 -4.22086 21520 ft 351 kts 162°
2026-04-29 14:15 55.59018 -4.21051 22276 ft 356 kts 162°
2026-04-29 14:15 55.56618 -4.19991 23065 ft 360 kts 162°
2026-04-29 14:15 55.54176 -4.18914 23830 ft 365 kts 162°
2026-04-29 14:15 55.51698 -4.17821 24616 ft 369 kts 162°
2026-04-29 14:16 55.49223 -4.16732 25318 ft 374 kts 162°
2026-04-29 14:16 55.46683 -4.15615 26075 ft 377 kts 162°
2026-04-29 14:16 55.44981 -4.14868 26675 ft 377 kts 162°
2026-04-29 14:16 55.44743 -4.14764 26765 ft 377 kts 162°
2026-04-29 14:17 55.42217 -4.13655 27693 ft 375 kts 162°
2026-04-29 14:17 55.39703 -4.12554 28575 ft 374 kts 162°
2026-04-29 14:17 55.37200 -4.11460 29460 ft 372 kts 162°
2026-04-29 14:17 55.34733 -4.10383 30364 ft 370 kts 162°
2026-04-29 14:18 55.32247 -4.09298 31219 ft 368 kts 162°
2026-04-29 14:18 55.29778 -4.08222 32055 ft 366 kts 161°
2026-04-29 14:18 55.27346 -4.07163 32837 ft 365 kts 161°
2026-04-29 14:18 55.24902 -4.06102 33621 ft 364 kts 161°
2026-04-29 14:19 55.22464 -4.05043 34394 ft 362 kts 161°
2026-04-29 14:19 55.20025 -4.03986 35242 ft 360 kts 161°
2026-04-29 14:19 55.17623 -4.02945 36025 ft 359 kts 161°
2026-04-29 14:19 55.15194 -4.01895 36824 ft 358 kts 161°
2026-04-29 14:20 55.12806 -4.00864 37617 ft 356 kts 161°
2026-04-29 14:20 55.10428 -3.99838 38382 ft 355 kts 161°
2026-04-29 14:20 55.08017 -3.98797 39003 ft 356 kts 161°
2026-04-29 14:20 55.05590 -3.97751 39222 ft 368 kts 161°
2026-04-29 14:21 55.03066 -3.96665 39225 ft 382 kts 161°
2026-04-29 14:21 55.00457 -3.95545 39221 ft 393 kts 161°
2026-04-29 14:21 54.95042 -3.93227 39229 ft 410 kts 161°
2026-04-29 14:22 54.89399 -3.90817 39197 ft 428 kts 161°
2026-04-29 14:22 54.83504 -3.88307 39194 ft 443 kts 161°
2026-04-29 14:23 54.78253 -3.86079 39203 ft 443 kts 162°
2026-04-29 14:23 54.72319 -3.83567 39219 ft 438 kts 161°
2026-04-29 14:24 54.66454 -3.81092 39046 ft 433 kts 161°
2026-04-29 14:24 54.63569 -3.79877 39357 ft 428 kts 161°
2026-04-29 14:24 54.60682 -3.78661 39192 ft 430 kts 161°
2026-04-29 14:25 54.54943 -3.76253 39297 ft 424 kts 161°
2026-04-29 14:25 54.49229 -3.73862 39198 ft 420 kts 161°
2026-04-29 14:26 54.43582 -3.71505 39184 ft 417 kts 161°
2026-04-29 14:26 54.37992 -3.69179 39190 ft 415 kts 161°
2026-04-29 14:27 54.32391 -3.66854 39178 ft 413 kts 161°
2026-04-29 14:28 54.24049 -3.63404 39188 ft 414 kts 161°
2026-04-29 14:28 54.18478 -3.61109 39172 ft 416 kts 161°
2026-04-29 14:29 54.12827 -3.58787 39182 ft 418 kts 160°
2026-04-29 14:29 54.07180 -3.56472 39169 ft 420 kts 160°
2026-04-29 14:30 54.01514 -3.54156 39164 ft 421 kts 160°
2026-04-29 14:30 53.95855 -3.51687 39153 ft 418 kts 155°
2026-04-29 14:31 53.90899 -3.47043 39186 ft 407 kts 137°
2026-04-29 14:31 53.88937 -3.44058 39160 ft 405 kts 133°
2026-04-29 14:31 53.85508 -3.36654 39179 ft 400 kts 115°
2026-04-29 14:32 53.84432 -3.32358 39181 ft 398 kts 107°
2026-04-29 14:32 53.83058 -3.23324 39184 ft 401 kts 107°
2026-04-29 14:33 53.81209 -3.14456 39201 ft 401 kts 110°
2026-04-29 14:33 53.79266 -3.05629 39184 ft 403 kts 110°
2026-04-29 14:34 53.77292 -2.96741 39156 ft 404 kts 110°
2026-04-29 14:34 53.75319 -2.87904 39194 ft 406 kts 110°
2026-04-29 14:35 53.73325 -2.79012 39187 ft 407 kts 110°
2026-04-29 14:35 53.71310 -2.70063 39179 ft 407 kts 110°
2026-04-29 14:36 53.69299 -2.61174 39190 ft 408 kts 109°
2026-04-29 14:36 53.67279 -2.52279 39171 ft 408 kts 110°
2026-04-29 14:37 53.65254 -2.43401 39167 ft 408 kts 110°
2026-04-29 14:37 53.63217 -2.34510 39186 ft 409 kts 110°
2026-04-29 14:38 53.61170 -2.25606 39189 ft 410 kts 110°
2026-04-29 14:38 53.59103 -2.16655 39187 ft 410 kts 110°
2026-04-29 14:39 53.57048 -2.07797 39183 ft 410 kts 110°
2026-04-29 14:39 53.54982 -1.98925 39177 ft 410 kts 111°
2026-04-29 14:40 53.52893 -1.89996 39156 ft 408 kts 110°
2026-04-29 14:40 53.51249 -1.80968 39178 ft 405 kts 105°
2026-04-29 14:41 53.49679 -1.71953 39169 ft 404 kts 105°
2026-04-29 14:41 53.48090 -1.62961 39166 ft 402 kts 106°
2026-04-29 14:42 53.46492 -1.53996 39188 ft 401 kts 105°
2026-04-29 14:42 53.44900 -1.45124 39184 ft 399 kts 106°
2026-04-29 14:43 53.43301 -1.36254 39195 ft 398 kts 106°
2026-04-29 14:43 53.41698 -1.27402 39181 ft 397 kts 107°
2026-04-29 14:44 53.40099 -1.18592 39189 ft 397 kts 107°
2026-04-29 14:44 53.38484 -1.09750 39193 ft 396 kts 107°
2026-04-29 14:45 53.36871 -1.00958 39207 ft 396 kts 107°
2026-04-29 14:45 53.35254 -0.92183 39193 ft 395 kts 107°
2026-04-29 14:46 53.33630 -0.83421 39217 ft 394 kts 107°
2026-04-29 14:46 53.31994 -0.74633 39219 ft 395 kts 106°
2026-04-29 14:47 53.30367 -0.65931 39220 ft 395 kts 106°
2026-04-29 14:47 53.28715 -0.57138 39216 ft 396 kts 106°
2026-04-29 14:48 53.27053 -0.48327 39221 ft 396 kts 106°
2026-04-29 14:48 53.25384 -0.39529 39215 ft 396 kts 106°
2026-04-29 14:49 53.23718 -0.30783 39341 ft 396 kts 107°
2026-04-29 14:49 53.22878 -0.26387 39221 ft 400 kts 107°
2026-04-29 14:49 53.22035 -0.21983 39213 ft 400 kts 107°
2026-04-29 14:50 53.20328 -0.13110 39214 ft 400 kts 107°
2026-04-29 14:50 53.18631 -0.04324 39239 ft 401 kts 107°
2026-04-29 14:51 53.16927 0.04456 39216 ft 401 kts 107°
2026-04-29 14:51 53.15208 0.13273 39216 ft 402 kts 107°
2026-04-29 14:52 53.13472 0.22137 39208 ft 402 kts 107°
2026-04-29 14:52 53.11745 0.30912 39205 ft 402 kts 107°
2026-04-29 14:53 53.10003 0.39724 39202 ft 402 kts 107°
2026-04-29 14:53 53.08256 0.48527 39192 ft 403 kts 107°
2026-04-29 14:54 53.06500 0.57332 39198 ft 403 kts 107°
2026-04-29 14:54 53.04728 0.66173 39201 ft 403 kts 107°
2026-04-29 14:55 53.02955 0.74982 39194 ft 403 kts 107°
2026-04-29 14:55 53.01176 0.83781 39204 ft 404 kts 107°
2026-04-29 14:56 52.99394 0.92558 39193 ft 404 kts 107°
2026-04-29 14:56 52.97686 1.01373 39198 ft 403 kts 102°
2026-04-29 14:57 52.96664 1.10471 39288 ft 401 kts 100°
2026-04-29 14:57 52.96145 1.14994 39174 ft 401 kts 100°
2026-04-29 14:57 52.95618 1.19549 39213 ft 403 kts 100°
2026-04-29 14:58 52.94565 1.28610 39202 ft 401 kts 99°
2026-04-29 14:58 52.93500 1.37691 39200 ft 402 kts 99°
2026-04-29 14:59 52.92435 1.46713 39217 ft 403 kts 99°
2026-04-29 14:59 52.91353 1.55826 39204 ft 403 kts 99°
2026-04-29 15:00 52.90266 1.64909 39197 ft 403 kts 99°
2026-04-29 15:00 52.89169 1.74010 39212 ft 404 kts 100°
2026-04-29 15:01 52.88067 1.83094 39197 ft 405 kts 100°
2026-04-29 15:01 52.86954 1.92208 39202 ft 406 kts 100°
2026-04-29 15:02 52.85827 2.01376 39208 ft 406 kts 99°
2026-04-29 15:02 52.84693 2.10534 39208 ft 406 kts 99°
2026-04-29 15:03 52.83563 2.19607 39209 ft 407 kts 99°
2026-04-29 15:03 52.82417 2.28735 39204 ft 407 kts 99°
2026-04-29 15:04 52.81261 2.37892 39289 ft 405 kts 99°
2026-04-29 15:04 52.80112 2.46924 39397 ft 403 kts 99°
2026-04-29 15:05 52.78959 2.55939 39374 ft 404 kts 99°
2026-04-29 15:05 52.77793 2.64993 39383 ft 404 kts 99°
2026-04-29 15:06 52.76609 2.74121 39381 ft 405 kts 100°
2026-04-29 15:06 52.75432 2.83145 39377 ft 405 kts 100°
2026-04-29 15:07 52.74061 2.92159 39392 ft 408 kts 108°
2026-04-29 15:07 52.71179 3.00235 39382 ft 416 kts 124°
2026-04-29 15:08 52.66878 3.06610 39370 ft 426 kts 143°
2026-04-29 15:08 52.61570 3.11038 39355 ft 428 kts 147°
2026-04-29 15:09 52.56406 3.15886 39333 ft 428 kts 145°
2026-04-29 15:09 52.51299 3.20815 39337 ft 428 kts 144°
2026-04-29 15:10 52.46183 3.25752 39355 ft 428 kts 144°
2026-04-29 15:10 52.41079 3.30666 39363 ft 429 kts 144°
2026-04-29 15:11 52.35948 3.35593 39342 ft 429 kts 145°
2026-04-29 15:11 52.30821 3.40503 39328 ft 429 kts 145°
2026-04-29 15:12 52.25681 3.45410 39341 ft 429 kts 144°
2026-04-29 15:12 52.20517 3.50328 39332 ft 430 kts 144°
2026-04-29 15:13 52.15394 3.55194 39303 ft 430 kts 145°
2026-04-29 15:13 52.10241 3.60076 39301 ft 431 kts 144°
2026-04-29 15:14 52.05063 3.64967 39315 ft 430 kts 144°
2026-04-29 15:14 51.99860 3.69869 39319 ft 431 kts 146°
2026-04-29 15:15 51.94675 3.74740 39312 ft 431 kts 146°
2026-04-29 15:15 51.89494 3.79596 39325 ft 432 kts 146°
2026-04-29 15:16 51.84252 3.84494 39313 ft 433 kts 146°
2026-04-29 15:16 51.79034 3.89356 39317 ft 433 kts 146°
2026-04-29 15:17 51.73801 3.94220 39278 ft 434 kts 146°
2026-04-29 15:17 51.68579 3.99061 39277 ft 434 kts 146°
2026-04-29 15:18 51.63325 4.03918 39295 ft 434 kts 146°
2026-04-29 15:18 51.58094 4.08741 39280 ft 435 kts 146°
2026-04-29 15:19 51.52842 4.13570 39263 ft 436 kts 146°
2026-04-29 15:19 51.47601 4.18376 39269 ft 436 kts 146°
2026-04-29 15:20 51.42334 4.23193 39246 ft 436 kts 146°
2026-04-29 15:20 51.37071 4.27995 39263 ft 436 kts 146°
2026-04-29 15:21 51.31796 4.32792 39245 ft 436 kts 146°
2026-04-29 15:21 51.26509 4.37588 39254 ft 437 kts 146°
2026-04-29 15:22 51.21247 4.42351 39269 ft 437 kts 146°
2026-04-29 15:22 51.15954 4.47126 39270 ft 437 kts 146°
2026-04-29 15:23 51.10672 4.51881 39252 ft 437 kts 146°
2026-04-29 15:23 51.05379 4.56633 39272 ft 438 kts 147°
2026-04-29 15:24 51.00088 4.61369 39279 ft 438 kts 146°
2026-04-29 15:24 50.94752 4.66134 39259 ft 439 kts 147°
2026-04-29 15:25 50.89440 4.70865 39241 ft 439 kts 148°
2026-04-29 15:25 50.84076 4.75629 39274 ft 439 kts 148°
2026-04-29 15:26 50.78771 4.80328 39261 ft 440 kts 148°
2026-04-29 15:26 50.73422 4.85055 39266 ft 440 kts 148°
2026-04-29 15:27 50.68089 4.89757 39216 ft 441 kts 147°
2026-04-29 15:27 50.63347 4.95657 39225 ft 433 kts 130°
2026-04-29 15:28 50.59116 5.02409 39227 ft 434 kts 132°
2026-04-29 15:28 50.54821 5.09068 39237 ft 435 kts 132°
2026-04-29 15:29 50.50538 5.15677 39246 ft 436 kts 132°
2026-04-29 15:30 50.41895 5.28957 39265 ft 437 kts 132°
2026-04-29 15:30 50.37556 5.35596 39261 ft 437 kts 132°
2026-04-29 15:31 50.33178 5.42277 39209 ft 440 kts 132°
2026-04-29 15:31 50.28799 5.48941 39214 ft 441 kts 132°
2026-04-29 15:32 50.24417 5.55593 39218 ft 441 kts 132°
2026-04-29 15:32 50.20030 5.62233 39209 ft 442 kts 132°
2026-04-29 15:33 50.15611 5.68904 39216 ft 443 kts 133°
2026-04-29 15:33 50.11196 5.75552 39196 ft 444 kts 133°
2026-04-29 15:34 50.06739 5.82244 39215 ft 445 kts 133°
2026-04-29 15:34 50.02291 5.88911 39211 ft 446 kts 133°
2026-04-29 15:35 49.97815 5.95601 39219 ft 447 kts 133°
2026-04-29 15:35 49.93309 6.02313 39212 ft 448 kts 133°
2026-04-29 15:36 49.88837 6.08955 39218 ft 449 kts 133°
2026-04-29 15:36 49.84923 6.16385 39211 ft 441 kts 117°
2026-04-29 15:37 49.82101 6.24824 39190 ft 441 kts 114°
2026-04-29 15:37 49.79262 6.33197 39226 ft 441 kts 114°
2026-04-29 15:38 49.76405 6.41568 39220 ft 442 kts 114°
2026-04-29 15:38 49.73301 6.49752 39202 ft 448 kts 124°
2026-04-29 15:39 49.68773 6.56515 39229 ft 456 kts 142°
2026-04-29 15:39 49.63445 6.61829 39209 ft 459 kts 144°
2026-04-29 15:40 49.58140 6.67336 39205 ft 463 kts 144°
2026-04-29 15:40 49.52789 6.72907 39185 ft 465 kts 144°
2026-04-29 15:41 49.47408 6.78497 39219 ft 466 kts 144°
2026-04-29 15:41 49.42030 6.84069 39194 ft 469 kts 144°
2026-04-29 15:42 49.36628 6.89650 39156 ft 471 kts 144°
2026-04-29 15:42 49.31189 6.95254 39215 ft 473 kts 145°
2026-04-29 15:43 49.25735 7.00859 39213 ft 475 kts 145°
2026-04-29 15:43 49.20217 7.06514 39204 ft 475 kts 145°
2026-04-29 15:44 49.14724 7.12128 39206 ft 477 kts 145°
2026-04-29 15:44 49.09234 7.17724 39118 ft 478 kts 145°
2026-04-29 15:44 49.06442 7.20563 39221 ft 477 kts 145°
2026-04-29 15:45 49.03667 7.23383 39182 ft 480 kts 145°
2026-04-29 15:45 48.98128 7.28997 39176 ft 480 kts 145°
2026-04-29 15:46 48.92550 7.34636 39190 ft 482 kts 145°
2026-04-29 15:46 48.86979 7.40254 39120 ft 482 kts 145°
2026-04-29 15:47 48.81353 7.45910 39151 ft 483 kts 146°
2026-04-29 15:47 48.75772 7.51507 39134 ft 483 kts 146°
2026-04-29 15:48 48.70166 7.57113 39144 ft 483 kts 146°
2026-04-29 15:48 48.64534 7.62729 39141 ft 485 kts 146°
2026-04-29 15:49 48.58908 7.68325 39132 ft 485 kts 146°
2026-04-29 15:49 48.53289 7.73899 39145 ft 485 kts 147°
2026-04-29 15:50 48.47671 7.79456 39069 ft 476 kts 146°
2026-04-29 15:50 48.44948 7.82145 38703 ft 475 kts 147°
2026-04-29 15:50 48.42161 7.84893 38400 ft 475 kts 147°
2026-04-29 15:50 48.39421 7.87590 38038 ft 474 kts 147°
2026-04-29 15:51 48.36652 7.90313 37724 ft 473 kts 147°
2026-04-29 15:51 48.33935 7.92984 37431 ft 473 kts 147°
2026-04-29 15:51 48.31162 7.95700 37041 ft 472 kts 147°
2026-04-29 15:51 48.28434 7.98374 36721 ft 473 kts 147°
2026-04-29 15:52 48.25674 8.01073 36197 ft 476 kts 147°
2026-04-29 15:52 48.22908 8.03777 35741 ft 480 kts 147°
2026-04-29 15:52 48.20112 8.06507 35305 ft 483 kts 149°
2026-04-29 15:52 48.17279 8.09264 34858 ft 486 kts 148°
2026-04-29 15:53 48.14447 8.12022 34411 ft 488 kts 149°
2026-04-29 15:53 48.11602 8.14783 33926 ft 491 kts 148°
2026-04-29 15:53 48.08730 8.17570 33432 ft 492 kts 148°
2026-04-29 15:53 48.05859 8.20355 32877 ft 495 kts 149°
2026-04-29 15:54 48.02955 8.23165 32259 ft 498 kts 149°
2026-04-29 15:54 48.00052 8.25971 31645 ft 496 kts 149°
2026-04-29 15:54 47.97193 8.28731 30998 ft 495 kts 149°
2026-04-29 15:54 47.94311 8.31508 30316 ft 494 kts 149°
2026-04-29 15:55 47.91411 8.34299 29614 ft 492 kts 148°
2026-04-29 15:55 47.88498 8.36970 28931 ft 489 kts 153°
2026-04-29 15:55 47.85381 8.38985 28192 ft 483 kts 165°
2026-04-29 15:55 47.82150 8.40326 27500 ft 479 kts 170°
2026-04-29 15:56 47.78909 8.41258 26768 ft 476 kts 172°
2026-04-29 15:56 47.75664 8.42077 26051 ft 473 kts 172°
2026-04-29 15:56 47.72492 8.43370 25269 ft 475 kts 158°
2026-04-29 15:56 47.69709 8.45960 24575 ft 474 kts 139°
2026-04-29 15:57 47.67513 8.49552 23780 ft 467 kts 122°
2026-04-29 15:57 47.66159 8.53807 23062 ft 455 kts 105°
2026-04-29 15:57 47.65185 8.58261 22281 ft 449 kts 107°
2026-04-29 15:57 47.64217 8.62609 21516 ft 441 kts 100°
2026-04-29 15:58 47.63996 8.67060 20768 ft 431 kts 86°
2026-04-29 15:58 47.64295 8.71230 20043 ft 421 kts 73°
2026-04-29 15:58 47.65407 8.75143 19325 ft 410 kts 59°
2026-04-29 15:58 47.66788 8.78785 18589 ft 404 kts 57°
2026-04-29 15:59 47.68197 8.82349 17908 ft 399 kts 57°
2026-04-29 15:59 47.69616 8.85852 17192 ft 395 kts 57°
2026-04-29 15:59 47.71022 8.89312 16467 ft 391 kts 56°
2026-04-29 15:59 47.72417 8.92750 15764 ft 386 kts 57°
2026-04-29 16:00 47.73783 8.96121 15060 ft 382 kts 57°
2026-04-29 16:00 47.75142 8.99476 14374 ft 378 kts 57°
2026-04-29 16:00 47.76490 9.02809 13686 ft 371 kts 57°
2026-04-29 16:00 47.77777 9.05999 12941 ft 355 kts 57°
2026-04-29 16:01 47.79039 9.09125 12251 ft 346 kts 57°
2026-04-29 16:01 47.80216 9.12146 11505 ft 332 kts 64°
2026-04-29 16:01 47.80693 9.15343 10790 ft 309 kts 90°
2026-04-29 16:01 47.80183 9.18316 10102 ft 294 kts 117°
2026-04-29 16:02 47.78841 9.20498 9428 ft 285 kts 146°
2026-04-29 16:02 47.77017 9.21407 8790 ft 279 kts 175°
2026-04-29 16:02 47.75102 9.20876 8053 ft 285 kts 204°
2026-04-29 16:02 47.73465 9.19238 7093 ft 288 kts 210°
2026-04-29 16:03 47.71612 9.18304 6132 ft 281 kts 178°
2026-04-29 16:03 47.69678 9.18192 5556 ft 283 kts 187°
2026-04-29 16:03 47.67742 9.17558 5055 ft 284 kts 189°
2026-04-29 16:03 47.65907 9.16920 5004 ft 263 kts 190°
2026-04-29 16:04 47.64141 9.16696 4909 ft 245 kts 164°
2026-04-29 16:04 47.62610 9.17632 4832 ft 237 kts 146°
2026-04-29 16:04 47.61160 9.18836 4731 ft 236 kts 145°
2026-04-29 16:04 47.59739 9.20035 4632 ft 235 kts 146°
2026-04-29 16:05 47.58329 9.21228 4531 ft 233 kts 144°
2026-04-29 16:05 47.57261 9.22846 4425 ft 216 kts 111°
2026-04-29 16:05 47.57088 9.24962 4340 ft 202 kts 73°
2026-04-29 16:05 47.57688 9.26776 4257 ft 194 kts 56°
2026-04-29 16:06 47.58343 9.28468 4173 ft 188 kts 62°
2026-04-29 16:06 47.58950 9.30128 4115 ft 176 kts 60°
2026-04-29 16:06 47.59535 9.31659 4008 ft 167 kts 60°
2026-04-29 16:06 47.60091 9.33095 3956 ft 156 kts 60°
2026-04-29 16:07 47.60616 9.34442 3797 ft 147 kts 59°
2026-04-29 16:07 47.61118 9.35727 3600 ft 138 kts 59°
2026-04-29 16:07 47.61568 9.36881 3410 ft 123 kts 59°
2026-04-29 16:07 47.62011 9.38012 3264 ft 131 kts 59°
2026-04-29 16:08 47.62464 9.39172 3094 ft 130 kts 59°
2026-04-29 16:08 47.62922 9.40345 2908 ft 129 kts 59°
2026-04-29 16:08 47.63362 9.41473 2728 ft 126 kts 59°
2026-04-29 16:08 47.63799 9.42595 2557 ft 125 kts 59°
2026-04-29 16:09 47.64239 9.43722 2386 ft 127 kts 59°
2026-04-29 16:09 47.64688 9.44877 2213 ft 130 kts 59°
2026-04-29 16:09 47.65147 9.46053 2030 ft 129 kts 59°
2026-04-29 16:09 47.65591 9.47191 1853 ft 126 kts 59°
2026-04-29 16:10 47.66028 9.48309 1659 ft 124 kts 60°
2026-04-29 16:10 47.66457 9.49400 1496 ft 122 kts 59°
2026-04-29 16:10 47.66867 9.50470 1380 ft 116 kts 59°
2026-04-29 16:10 47.67137 9.51169 1374 ft 86 kts 60°
2026-04-29 16:11 47.67178 9.51277 1373 ft 80 kts 60°
2026-04-29 16:11 47.67352 9.51730 1373 ft 30 kts 60°
2026-04-29 16:11 47.67442 9.51966 1374 ft 15 kts 56°
2026-04-29 16:12 47.67455 9.52085 1374 ft 11 kts 142°
2026-04-29 16:12 47.67401 9.52121 1374 ft 13 kts 159°
2026-04-29 16:12 47.67354 9.52118 1374 ft 0 kts 197°
2026-04-29 16:12 47.67339 9.52127 1373 ft 4 kts 117°
2026-04-29 16:13 47.67350 9.52190 1374 ft 8 kts 64°
2026-04-29 16:13 47.67385 9.52280 1374 ft 9 kts 57°
2026-04-29 16:13 47.67411 9.52368 1373 ft 9 kts 100°
2026-04-29 16:13 47.67379 9.52402 1373 ft 4 kts 214°
2026-04-29 16:14 47.67356 9.52369 1373 ft 0 kts 204°